Location: Prairie State College
(41.5244°N, 87.6382°W)
Time: 02:00:13
(UTC-05:00)

MSX - Visible Passes

Search period start: 31 October 2014 00:00
Search period end: 09 November 2014 23:00
Orbit: 895 x 906 km, 98.8° (Epoch: 28 October)

Date Brightness Start Highest point End Pass type
(mag) Time Alt. Az. Time Alt. Az. Time Alt. Az.
31 Oct 4.9 19:39:39 26° NE 19:39:39 26° NE 19:42:58 10° N visible
31 Oct 5.8 21:22:44 23° NW 21:22:44 23° NW 21:25:00 10° NNW visible
01 Nov 5.0 19:42:40 26° NNE 19:42:40 26° NNE 19:45:50 10° N visible
01 Nov 5.9 21:25:44 21° NW 21:25:44 21° NW 21:27:47 10° NNW visible
02 Nov 5.0 18:45:41 26° NNE 18:45:41 26° NNE 18:48:43 10° N visible
02 Nov 6.0 20:28:45 19° NW 20:28:45 19° NW 20:30:33 10° NNW visible
03 Nov 5.0 18:48:41 26° NNE 18:48:41 26° NNE 18:51:35 10° N visible
03 Nov 6.1 20:31:45 18° NW 20:31:45 18° NW 20:33:19 10° NNW visible
04 Nov 5.1 18:51:41 26° NNE 18:51:41 26° NNE 18:54:28 10° N visible
04 Nov 6.2 20:34:46 16° NW 20:34:46 16° NW 20:36:05 10° NNW visible
05 Nov 5.1 18:54:41 25° NNE 18:54:41 25° NNE 18:57:20 10° N visible
05 Nov 6.3 20:37:46 15° NW 20:37:46 15° NW 20:38:50 10° NW visible
06 Nov 5.2 18:57:41 25° NNE 18:57:41 25° NNE 19:00:11 10° N visible
06 Nov 6.4 20:40:46 14° NW 20:40:46 14° NW 20:41:35 10° NW visible
07 Nov 5.2 19:00:41 24° NNE 19:00:41 24° NNE 19:03:03 10° N visible
07 Nov 6.5 20:43:45 12° NW 20:43:45 12° NW 20:44:20 10° NW visible
08 Nov 5.3 19:03:41 23° N 19:03:41 23° N 19:05:54 10° N visible
08 Nov 6.6 20:46:45 11° NW 20:46:45 11° NW 20:47:04 10° NW visible
09 Nov 5.4 19:06:40 23° N 19:06:40 23° N 19:08:45 10° N visible
09 Nov 6.6 20:49:44 10° NW 20:49:44 10° NW 20:49:48 10° NW visible
